Location: Mouchès
(43.5575°N, 0.4102°E)
Time: 15:43:06
(UTC+00:00)

Daily predictions for brighter satellites

Satellite Brightness Start Highest point End
(mag) Time Altitude Azimuth Time Altitude Azimuth Time Altitude Azimuth
SL-16 R/B 2.6 16:40:46 10° NNE 16:47:03 81° ESE 16:53:13 10° SSW
Cosmos 1656 3.8 16:45:04 10° S 16:50:32 59° ESE 16:56:06 10° NNE
NOSS 2-2 (D) 2.8 16:46:59 10° SSW 16:50:34 82° SE 16:53:37 10° NE
Cosmos 2297 Rocket 2.7 16:50:58 10° NNW 16:56:16 38° ENE 17:01:30 10° SE
Cosmos 405 Rocket 2.2 16:56:48 10° N 17:00:02 65° ENE 17:03:14 10° SSE
Lacrosse 4 Rocket 3.3 16:57:40 10° WSW 17:01:02 24° NW 17:04:24 10° N
SAR-Lupe-4 4.4 16:57:58 10° SE 17:01:05 29° ENE 17:04:13 10° N
NOSS 2-2 (E) 2.7 16:58:58 10° SW 17:02:33 86° ESE 17:05:37 10° NE
SL-08 ROCKET BODY 4.4 16:57:07 10° N 17:02:59 59° E 17:08:56 10° SSE
Cosmos 1570 Rocket 4.0 16:58:15 10° NNW 17:03:37 74° ENE 17:08:54 10° SSE
Cosmos 2151 3.6 17:00:47 10° N 17:04:31 32° ENE 17:08:16 10° SE
CENTAUR R/B 3.5 16:59:23 10° WSW 17:04:42 39° NW 17:11:18 10° NNE
Cosmos 1626 Rocket 3.4 17:04:53 10° N 17:09:13 75° E 17:13:30 10° SSE
Cosmos 836 Rocket 4.5 17:04:06 10° NNW 17:09:21 75° ENE 17:14:36 10° SSE
Cosmos 1486 Rocket 4.0 17:06:58 10° S 17:12:05 65° ESE 17:17:17 10° NNE
Cosmos 1782 2.4 17:08:48 10° S 17:12:24 79° E 17:16:00 10° N
Cosmos 1315 Rocket 4.4 17:11:55 10° SW 17:15:25 34° WNW 17:18:57 10° N
IRS-P3 4.5 17:11:37 10° SE 17:16:33 41° ENE 17:21:31 10° N
Intercosmos 24 3.8 17:14:13 10° N 17:18:03 79° W 17:21:36 10° S
Cosmos 1980 Rocket 3.7 17:17:51 10° SE 17:21:05 16° E 17:22:55 14° ENE
Cosmos 1733 1.4 17:19:36 10° NNW 17:21:24 73° W 17:23:10 10° S
IGS 5A 4.1 17:17:52 10° S 17:21:45 57° W 17:25:40 10° NNW
IRIDIUM 106 4.4 17:16:46 10° N 17:21:54 54° E 17:26:59 10° SSE
Cosmos 1544 Rocket 3.8 17:19:58 10° SSW 17:24:21 76° W 17:28:47 10° N
USA 215 4.4 17:19:58 12° NE 17:24:51 27° N 17:30:10 10° NW
Cosmos 773 Rocket 3.9 17:19:38 10° NNW 17:24:53 81° ENE 17:30:07 10° SSE
SMAP 3.1 17:25:25 10° SSE 17:30:03 83° WSW 17:34:45 10° NNW
ARIANE 5 R/B 2.4 17:25:55 10° SSE 17:30:56 77° ENE 17:36:04 10° N
Okean 1-7 Rocket 3.8 17:26:53 10° N 17:31:07 45° ENE 17:35:18 10° SSE
USA 290 2.3 17:28:33 10° NNW 17:31:46 54° ENE 17:34:57 10° SE
Cosmos 2084 Rocket 4.0 17:30:01 10° NNW 17:33:53 34° NE 17:36:42 16° ESE
SAR-Lupe-3 4.2 17:34:24 28° NE 17:35:14 37° E 17:37:36 10° S
COSMO-SKYMED 1 3.6 17:34:13 19° ENE 17:35:26 22° E 17:38:40 10° SSE
Landsat 7 3.7 17:31:14 10° SSE 17:35:52 86° ENE 17:40:33 10° NNW
Cosmos 2263 Rocket 3.3 17:31:42 10° N 17:36:05 22° NE 17:38:10 18° E
Cosmos 990 Rocket 4.4 17:31:28 10° S 17:36:11 39° ESE 17:39:59 15° NE
CZ-2D R/B 4.2 17:33:19 10° SE 17:36:58 29° ENE 17:40:36 10° N
SPOT 1/Viking Rocket 3.9 17:32:40 10° SE 17:37:32 42° ENE 17:42:25 10° N
CORIOLIS 4.5 17:32:19 10° S 17:37:37 70° WSW 17:42:58 10° NNW
CZ-2D R/B 2.6 17:35:12 10° SSE 17:38:19 86° E 17:41:29 10° NNW
Cosmos 2208 Rocket 4.2 17:33:39 10° NNW 17:38:49 77° WSW 17:43:59 10° SSE
Cosmos 724 4.3 17:32:57 10° NNW 17:39:00 69° NE 17:44:51 10° SE
UNK 4.3 17:36:26 10° N 17:40:58 59° WNW 17:45:26 10° SSW
SJ-12 3.6 17:37:28 10° SSE 17:41:15 88° ENE 17:45:02 10° NNW
Cosmos 1726 Rocket 4.2 17:37:04 10° SSE 17:41:21 38° E 17:45:09 13° NNE
Cosmos 1933 3.3 17:38:09 10° S 17:41:53 54° E 17:45:20 12° NNE
Cosmos 2360 4.4 17:37:16 10° SSW 17:42:58 73° WNW 17:48:43 10° NNE
SKYMED 2 3.9 17:41:22 13° NNE 17:45:00 43° E 17:49:08 10° S
ATLAS CENTAUR R/B 0.7 17:42:10 10° NW 17:45:24 76° WSW 17:48:30 10° SSE
Helios 1A Rocket 4.4 17:48:36 15° SE 17:48:36 15° SE 17:49:41 10° SE
Cosmos 1602 Rocket 3.6 17:42:56 10° N 17:47:21 81° W 17:51:41 10° S
Cosmos 2227 Rocket 2.5 17:42:00 10° NNW 17:47:21 42° ENE 17:52:42 10° SE
NOSS 2-3 (E) 3.9 17:46:19 10° S 17:49:42 34° ESE 17:50:32 30° E
NOSS 2-3 (D) 3.9 17:48:55 10° S 17:52:20 33° ESE 17:53:00 31° E
BREEZE-M DEB (TANK) 3.3 17:47:52 10° SW 17:52:24 34° SSE 17:53:11 28° ESE
Cosmos 1743 3.5 17:50:51 10° NNW 17:53:58 44° W 17:57:04 10° SSW
SJ-6F 4.3 17:50:57 10° SSE 17:54:54 89° ENE 17:58:55 10° NNW
YAOGAN 1 2.9 17:51:57 10° SE 17:55:54 38° ENE 17:59:51 10° N
Cosmos 1697 Rocket 2.6 17:56:40 10° SSW 18:02:15 77° ESE 18:06:23 19° NNE
NOSS 3-2 (C) 3.3 17:57:25 10° SW 18:02:22 70° NW 18:06:33 19° NNE
Cosmos 783 Rocket 4.4 17:57:58 10° NNW 18:03:18 81° ENE 18:08:36 10° SSE
IRAS Rocket 4.4 17:58:57 10° SE 18:04:09 46° ENE 18:09:22 10° N
CZ-4C R/B 3.0 17:59:43 10° NW 18:06:53 78° NE 18:15:42 10° SE
BlueWalker 3 2.8 18:04:01 10° WNW 18:07:30 45° SW 18:10:16 15° SSE
Cosmos 1953 Rocket 3.7 18:05:33 10° N 18:09:53 50° ENE 18:14:11 10° SSE
Cosmos 1538 Rocket 4.5 18:05:24 10° N 18:10:16 36° ENE 18:10:37 36° ENE
Gbstr 26 Del rocket 2.5 18:09:25 10° SW 18:13:27 85° SSE 18:14:05 60° ENE
MOS 1 Rocket 4.0 18:10:16 10° S 18:14:58 57° W 18:19:59 10° NNW
Cosmos 1607 4.2 18:12:50 10° NW 18:19:02 69° WSW 18:25:17 10° SSE
Cosmos 1461 3.7 18:16:50 10° WSW 18:20:33 43° NW 18:22:01 29° N
Cosmos-2242 4.2 18:17:06 10° SSE 18:19:15 26° SE 18:19:15 26° SE
Cosmos 1825 Rocket 3.7 18:17:03 10° NNW 18:21:23 71° W 18:25:39 10° S
Meteor 1-26 Rocket 4.3 18:18:56 10° SSE 18:24:04 45° E 18:24:12 45° E
Cosmos 1354 Rocket 4.4 18:19:57 10° SSW 18:25:10 64° WNW 18:28:58 19° N
Lacrosse 5 rocket 3.6 18:24:46 10° NNW 18:26:02 11° NNW 18:26:03 11° N
Spot 4 Rocket 3.9 18:23:46 10° SSE 18:28:52 88° ENE 18:34:00 10° NNW
Cosmos 1900 4.4 18:25:14 10° NW 18:30:17 78° WSW 18:34:00 18° SSE
Cosmos 2058 Rocket 3.3 18:30:09 10° S 18:33:48 55° SSE 18:33:48 55° SSE
Meteor 2-10 4.0 18:30:47 10° N 18:36:07 67° ENE 18:41:36 10° SSE
Cosmos 1553 Rocket 3.9 18:33:56 10° SSE 18:39:52 56° E 18:40:28 53° ENE
Cosmos 2297 Rocket 3.9 18:35:09 10° NW 18:40:11 34° WSW 18:45:11 10° SSW
Cosmos 1898 Rocket 4.0 18:36:06 10° S 18:39:50 42° SSE 18:39:50 42° SSE
Cosmos 1867 4.0 18:46:50 10° NW 18:52:12 59° WSW 18:55:30 23° S
Cosmos 1076 Rocket 4.5 18:51:49 10° NNW 18:55:56 46° W 19:00:03 10° SSW
Cosmos 2219 3.9 18:50:26 10° NNW 18:54:13 39° N 18:54:13 39° N
USA 238 DEB 3.4 18:56:02 10° SW 19:02:06 86° NW 19:02:56 69° NNE
Aureole 1 Rocket 3.9 18:58:03 10° SSW 19:00:55 46° SW 19:00:55 46° SW
USA 238 3.4 18:56:08 10° SW 19:02:12 87° NW 19:03:00 70° NNE
Cosmos 1244 Rocket 4.4 18:57:02 10° N 19:03:21 88° W 19:09:33 10° S
Cosmos 1980 Rocket 2.2 18:58:41 10° SSW 19:04:20 76° WNW 19:04:43 73° NNW
USA 215 3.9 19:07:18 40° NNE 19:07:18 40° NNE 19:12:52 10° NW
Cosmos 372 Rocket 4.3 19:03:26 10° SSW 19:07:53 63° WSW 19:07:53 63° WSW
COSMO-SKYMED 1 4.1 19:10:33 31° WNW 19:10:47 31° WNW 19:14:25 10° SW
Cosmos 2263 Rocket 2.5 19:14:51 10° NNW 19:19:56 62° WNW 19:19:56 62° WNW
Cosmos 2227 Rocket 3.9 19:26:21 10° NW 19:31:12 30° WSW 19:36:01 10° SSW
